Content
SEND FEEDBACK

Daily
Averages
Monthly
Summary
United States of America

AGAT, GUAM


Home > North America > United States > Guam
Elevation: 364 feet     Latitude: 13 33N     Longitude: 144 50E

WEATHER
 
SELECT A DAY
Number of Records: 209,133;   Date Range: 1/1/95 - 8/28/14
 
SHARE

PRINT THIS DATA

[ ← Previous Day ]
WEATHER ALMANAC - JULY 13, 2013
[ Next Day → ]
[ °C ]   °F
Weather ElementAverageHighLow
Temperature85 °F91 °F (12:54 pm)80.6 °F (5:12 am)
Dewpoint75.7 °F78.8 °F (4:06 pm)73.4 °F (5:12 am)
Humidity73.9 %88 % (5:54 am)59 % (12:54 pm)
Barometer29.83 in29.86 in (5:23 am)29.79 in (3:54 pm)
Wind Speed9.4 mph16.1 mph (11:54 am)
Wind Gust25.3 mph (1:54 pm)
Weather ElementAverage
Visibility8.4 mi
Wind DirectionE (91.6 °)

Weather ElementTotal
Precipitation0.91 in
Cooling Degree Days20.8 (Base 65)
Growing Degree Days35.8 (Base 50)
Averaged from 32 records on July 13, 2013
WEATHER CONDITIONS BREAKOUT
WIND DIRECTION BREAKOUT
WEATHER BY HOUR - JULY 13, 2013
[ °C ]   °F
Local TimeTemperatureDewpointHumidityBarometerVisibilityWind DirectionWind SpeedGust SpeedPrecipitationEventsConditions
1:54 AM84.0 °F75.0 °F74 %29.82 in10.0 miENE (70°)6.9 mphPartly Cloudy
2:54 AM82.9 °F75.9 °F79 %29.81 in10.0 miEast (80°)8.1 mphPartly Cloudy
3:54 AM84.0 °F75.9 °F76 %29.81 in10.0 miEast (80°)5.8 mphScattered Clouds
4:54 AM84.0 °F75.0 °F74 %29.82 in10.0 miEast (90°)4.6 mphScattered Clouds
5:04 AM82.4 °F75.2 °F79 %29.85 in7.0 miSE (130°)8.1 mph0.00 inRainLight Rain
5:12 AM80.6 °F73.4 °F79 %29.85 in7.0 miESE (120°)3.5 mph0.01 inRainLight Rain
5:23 AM80.6 °F73.4 °F79 %29.86 in2.5 miEast (100°)10.4 mph0.05 inRainHeavy Rain
5:30 AM80.6 °F75.2 °F84 %29.85 in1.8 miENE (70°)5.8 mph0.23 inRainLight Rain
5:33 AM80.6 °F75.2 °F84 %29.85 in3.0 miEast (80°)6.9 mph0.23 inRainLight Rain
5:54 AM81.0 °F77.0 °F88 %29.83 in3.0 miEast (100°)3.5 mph0.23 inPartly Cloudy
6:54 AM84.0 °F77.0 °F79 %29.83 in10.0 miEast (90°)10.4 mphClear
7:54 AM84.9 °F77.0 °F77 %29.86 in10.0 miEast (90°)8.1 mphScattered Clouds
8:54 AM86.0 °F75.9 °F72 %29.86 in10.0 miEast (100°)11.5 mph18.4 mphPartly Cloudy
9:54 AM87.1 °F75.9 °F69 %29.86 in10.0 miEast (100°)12.7 mphClear
10:54 AM88.0 °F75.9 °F67 %29.83 in10.0 miESE (110°)13.8 mphClear
11:54 AM89.1 °F75.9 °F65 %29.83 in10.0 miEast (80°)16.1 mph20.7 mphMostly Cloudy
12:54 PM91.0 °F75.0 °F59 %29.81 in10.0 miEast (100°)15.0 mph23.0 mphScattered Clouds
1:44 PM89.6 °F75.2 °F62 %29.83 in10.0 miESE (110°)15.0 mph23.0 mphMostly Cloudy
1:54 PM89.1 °F75.0 °F63 %29.80 in10.0 miEast (90°)15.0 mph25.3 mphScattered Clouds
2:54 PM90.0 °F75.0 °F61 %29.80 in10.0 miEast (100°)15.0 mph20.7 mphScattered Clouds
3:54 PM89.1 °F75.9 °F65 %29.79 in10.0 miEast (80°)15.0 mph21.9 mphMostly Cloudy
4:03 PM84.2 °F77.0 °F79 %29.82 in2.5 miESE (110°)8.1 mph0.00 inRainLight Rain
4:04 PM84.2 °F77.0 °F79 %29.82 in5.0 miEast (100°)8.1 mph0.04 inRainHeavy Rain
4:06 PM84.2 °F78.8 °F84 %29.82 in7.0 miESE (110°)4.6 mph0.06 inRainLight Rain
4:54 PM86.0 °F78.1 °F77 %29.79 in10.0 miEast (100°)9.2 mph0.06 inScattered Clouds
5:54 PM86.0 °F73.9 °F67 %29.81 in10.0 miEast (90°)11.5 mphScattered Clouds
6:54 PM84.9 °F75.9 °F74 %29.83 in10.0 miEast (80°)8.1 mphPartly Cloudy
7:54 PM84.9 °F75.9 °F74 %29.85 in10.0 miEast (80°)6.9 mphPartly Cloudy
8:54 PM84.9 °F75.9 °F74 %29.85 in10.0 miENE (60°)9.2 mphPartly Cloudy
9:54 PM84.0 °F75.0 °F74 %29.86 in10.0 miENE (70°)9.2 mphPartly Cloudy
10:54 PM84.0 °F75.0 °F74 %29.86 in10.0 miEast (80°)8.1 mphPartly Cloudy
11:54 PM84.0 °F75.0 °F74 %29.86 in10.0 miEast (80°)8.1 mphPartly Cloudy
Hourly data recorded from PGUM, located miles away from Agat, Guam







STORIES FROM OUR PARTNERS